Time,TemperatureF,DewpointF,PressureIn,WindDirection,WindDirectionDegrees,WindSpeedMPH,WindSpeedGustMPH,Humidity,HourlyPrecipIn,Conditions,Clouds,dailyrainin,SolarRadiationWatts/m^2,SoftwareType,DateUTC
2013-04-26 00:02:00,54.2,46.8,30.13,WNW,297,0.0,0.0,76,0.00,CLR,,0.00,0.0,WeatherDisplay:10.37,2013-04-25 22:02:00,
2013-04-26 00:07:00,54.0,46.6,30.12,WNW,297,0.0,0.0,76,0.00,CLR,,0.00,0.0,WeatherDisplay:10.37,2013-04-25 22:07:00,
2013-04-26 00:12:00,53.8,46.4,30.12,WNW,297,0.0,0.0,76,0.00,CLR,,0.00,0.0,WeatherDisplay:10.37,2013-04-25 22:12:00,
2013-04-26 00:17:00,53.6,46.6,30.12,WNW,297,0.0,0.0,77,0.00,CLR,,0.00,0.0,WeatherDisplay:10.37,2013-04-25 22:17:00,
2013-04-26 00:22:00,53.4,46.4,30.12,WNW,297,0.0,0.0,77,0.00,CLR,,0.00,0.0,WeatherDisplay:10.37,2013-04-25 22:22:00,
2013-04-26 00:27:00,53.3,46.3,30.12,WNW,297,0.0,0.0,77,0.00,CLR,,0.00,0.0,WeatherDisplay:10.37,2013-04-25 22:27:00,
2013-04-26 00:32:00,53.1,46.4,30.12,WNW,297,0.0,0.0,78,0.00,CLR,,0.00,0.0,WeatherDisplay:10.37,2013-04-25 22:32:00,
2013-04-26 00:37:00,52.8,46.1,30.12,WNW,297,0.0,0.0,78,0.00,CLR,,0.00,0.0,WeatherDisplay:10.37,2013-04-25 22:37:00,
2013-04-26 00:42:00,52.7,46.0,30.11,WNW,297,0.0,0.0,78,0.00,CLR,,0.00,0.0,WeatherDisplay:10.37,2013-04-25 22:42:00,
2013-04-26 00:47:00,52.5,46.2,30.11,WNW,297,0.0,0.0,79,0.00,CLR,,0.00,0.0,WeatherDisplay:10.37,2013-04-25 22:47:00,
2013-04-26 00:52:00,52.4,46.1,30.11,WNW,297,0.0,0.0,79,0.00,CLR,,0.00,0.0,WeatherDisplay:10.37,2013-04-25 22:52:00,
2013-04-26 00:57:00,52.2,45.9,30.11,WNW,297,0.0,1.2,79,0.00,CLR,,0.00,0.0,WeatherDisplay:10.37,2013-04-25 22:57:00,
2013-04-26 01:02:00,52.1,46.1,30.11,WNW,297,0.0,0.0,80,0.00,CLR,,0.00,0.0,WeatherDisplay:10.37,2013-04-25 23:02:00,
2013-04-26 01:07:00,51.9,45.9,30.11,WNW,296,0.0,0.0,80,0.00,CLR,,0.00,0.0,WeatherDisplay:10.37,2013-04-25 23:07:00,
2013-04-26 01:12:00,51.8,45.8,30.11,WNW,297,0.0,0.0,80,0.00,CLR,,0.00,0.0,WeatherDisplay:10.37,2013-04-25 23:12:00,
2013-04-26 01:17:00,51.6,45.6,30.11,WNW,297,0.2,1.2,80,0.00,CLR,,0.00,0.0,WeatherDisplay:10.37,2013-04-25 23:17:00,
2013-04-26 01:22:00,51.5,45.9,30.10,WNW,297,0.0,0.0,81,0.00,CLR,,0.00,0.0,WeatherDisplay:10.37,2013-04-25 23:22:00,
2013-04-26 01:27:00,51.3,45.7,30.10,WNW,297,0.0,1.2,81,0.00,CLR,,0.00,0.0,WeatherDisplay:10.37,2013-04-25 23:27:00,
2013-04-26 01:32:00,51.2,45.6,30.10,WNW,297,0.0,0.0,81,0.00,CLR,,0.00,0.0,WeatherDisplay:10.37,2013-04-25 23:32:00,
2013-04-26 01:37:00,51.1,45.5,30.10,WNW,297,0.0,0.0,81,0.00,CLR,,0.00,0.0,WeatherDisplay:10.37,2013-04-25 23:37:00,
2013-04-26 01:42:00,51.0,45.4,30.10,WNW,297,0.0,0.0,81,0.00,CLR,,0.00,0.0,WeatherDisplay:10.37,2013-04-25 23:42:00,
2013-04-26 01:47:00,50.9,45.3,30.10,WNW,297,0.0,0.0,81,0.00,CLR,,0.00,0.0,WeatherDisplay:10.37,2013-04-25 23:47:00,
2013-04-26 01:52:00,50.8,45.2,30.10,WNW,297,0.0,0.0,81,0.00,CLR,,0.00,0.0,WeatherDisplay:10.37,2013-04-25 23:52:00,
2013-04-26 01:57:00,50.7,45.1,30.10,WNW,297,0.0,0.0,81,0.00,CLR,,0.00,0.0,WeatherDisplay:10.37,2013-04-25 23:57:00,
2013-04-26 02:02:00,50.5,45.2,30.10,WNW,297,0.0,0.0,82,0.00,CLR,,0.00,0.0,WeatherDisplay:10.37,2013-04-26 00:02:00,
2013-04-26 02:07:00,50.3,45.0,30.10,WNW,296,0.1,1.2,82,0.00,CLR,,0.00,0.0,WeatherDisplay:10.37,2013-04-26 00:07:00,
2013-04-26 02:12:00,50.1,44.8,30.09,WNW,297,0.0,0.0,82,0.00,CLR,,0.00,0.0,WeatherDisplay:10.37,2013-04-26 00:12:00,
2013-04-26 02:17:00,50.0,44.7,30.09,WNW,297,0.0,0.0,82,0.00,CLR,,0.00,0.0,WeatherDisplay:10.37,2013-04-26 00:17:00,
2013-04-26 02:22:00,49.9,44.9,30.09,WNW,297,0.0,0.0,83,0.00,CLR,,0.00,0.0,WeatherDisplay:10.37,2013-04-26 00:22:00,
2013-04-26 02:27:00,49.9,44.9,30.09,WNW,297,0.0,0.0,83,0.00,CLR,,0.00,0.0,WeatherDisplay:10.37,2013-04-26 00:27:00,
2013-04-26 02:32:00,49.8,44.8,30.09,WNW,297,0.0,0.0,83,0.00,CLR,,0.00,0.0,WeatherDisplay:10.37,2013-04-26 00:32:00,
2013-04-26 02:37:00,49.7,44.7,30.09,WNW,297,0.0,0.0,83,0.00,CLR,,0.00,0.0,WeatherDisplay:10.37,2013-04-26 00:37:00,
2013-04-26 02:42:00,49.7,45.1,30.09,WNW,297,0.0,0.0,84,0.00,CLR,,0.00,0.0,WeatherDisplay:10.37,2013-04-26 00:42:00,
2013-04-26 02:47:00,49.6,45.0,30.09,WNW,297,0.0,0.0,84,0.00,CLR,,0.00,0.0,WeatherDisplay:10.37,2013-04-26 00:47:00,
2013-04-26 02:52:00,49.5,44.9,30.09,WNW,297,0.0,0.0,84,0.00,CLR,,0.00,0.0,WeatherDisplay:10.37,2013-04-26 00:52:00,
2013-04-26 02:57:00,49.4,44.8,30.08,WNW,297,0.0,0.0,84,0.00,CLR,,0.00,0.0,WeatherDisplay:10.37,2013-04-26 00:57:00,
2013-04-26 03:02:00,49.4,45.1,30.08,WNW,297,0.0,0.0,85,0.00,CLR,,0.00,0.0,WeatherDisplay:10.37,2013-04-26 01:02:00,
2013-04-26 03:07:00,49.4,45.1,30.08,WNW,297,0.0,0.0,85,0.00,CLR,,0.00,0.0,WeatherDisplay:10.37,2013-04-26 01:07:00,
2013-04-26 03:12:00,49.3,45.0,30.08,WNW,297,0.0,0.0,85,0.00,CLR,,0.00,0.0,WeatherDisplay:10.37,2013-04-26 01:12:00,
2013-04-26 03:17:00,49.2,44.9,30.08,WNW,297,0.0,0.0,85,0.00,CLR,,0.00,0.0,WeatherDisplay:10.37,2013-04-26 01:17:00,
2013-04-26 03:22:00,49.1,44.8,30.08,WNW,297,0.0,1.2,85,0.00,CLR,,0.00,0.0,WeatherDisplay:10.37,2013-04-26 01:22:00,
2013-04-26 03:27:00,49.0,44.7,30.07,WNW,297,0.0,0.0,85,0.00,CLR,,0.00,0.0,WeatherDisplay:10.37,2013-04-26 01:27:00,
2013-04-26 03:32:00,48.8,44.5,30.08,WNW,297,0.0,0.0,85,0.00,CLR,,0.00,0.0,WeatherDisplay:10.37,2013-04-26 01:32:00,
2013-04-26 03:37:00,48.7,44.4,30.07,WNW,297,0.0,0.0,85,0.00,CLR,,0.00,0.0,WeatherDisplay:10.37,2013-04-26 01:37:00,
2013-04-26 03:42:00,48.5,44.2,30.07,WNW,297,0.0,0.0,85,0.00,CLR,,0.00,0.0,WeatherDisplay:10.37,2013-04-26 01:42:00,
2013-04-26 03:47:00,48.3,44.0,30.07,WNW,297,0.0,0.0,85,0.00,CLR,,0.00,0.0,WeatherDisplay:10.37,2013-04-26 01:47:00,
2013-04-26 03:52:00,48.2,43.9,30.07,WNW,297,0.0,0.0,85,0.00,CLR,,0.00,0.0,WeatherDisplay:10.37,2013-04-26 01:52:00,
2013-04-26 03:57:00,48.1,44.1,30.07,WNW,297,0.0,0.0,86,0.00,CLR,,0.00,0.0,WeatherDisplay:10.37,2013-04-26 01:57:00,
2013-04-26 04:02:00,48.0,44.0,30.06,WNW,297,0.0,0.0,86,0.00,CLR,,0.00,0.0,WeatherDisplay:10.37,2013-04-26 02:02:00,
2013-04-26 04:07:00,47.9,43.9,30.06,WNW,297,0.0,0.0,86,0.00,CLR,,0.00,0.0,WeatherDisplay:10.37,2013-04-26 02:07:00,
2013-04-26 04:12:00,47.9,43.9,30.06,WNW,297,0.0,0.0,86,0.00,CLR,,0.00,0.0,WeatherDisplay:10.37,2013-04-26 02:12:00,
2013-04-26 04:17:00,47.8,43.8,30.06,WNW,297,0.0,0.0,86,0.00,CLR,,0.00,0.0,WeatherDisplay:10.37,2013-04-26 02:17:00,
2013-04-26 04:22:00,47.7,44.0,30.06,WNW,297,0.0,0.0,87,0.00,CLR,,0.00,0.0,WeatherDisplay:10.37,2013-04-26 02:22:00,
2013-04-26 04:27:00,47.6,43.9,30.06,WNW,297,0.0,0.0,87,0.00,CLR,,0.00,0.0,WeatherDisplay:10.37,2013-04-26 02:27:00,
2013-04-26 04:32:00,47.5,43.8,30.06,WNW,297,0.0,0.0,87,0.00,CLR,,0.00,0.0,WeatherDisplay:10.37,2013-04-26 02:32:00,
2013-04-26 04:37:00,47.4,43.7,30.06,WNW,297,0.0,0.0,87,0.00,CLR,,0.00,0.0,WeatherDisplay:10.37,2013-04-26 02:37:00,
2013-04-26 04:42:00,47.3,43.6,30.05,WNW,297,0.0,0.0,87,0.00,CLR,,0.00,0.0,WeatherDisplay:10.37,2013-04-26 02:42:00,
2013-04-26 04:47:00,47.3,43.6,30.05,WNW,297,0.0,0.0,87,0.00,CLR,,0.00,0.0,WeatherDisplay:10.37,2013-04-26 02:47:00,
2013-04-26 04:52:00,47.3,43.6,30.05,WNW,297,0.0,0.0,87,0.00,CLR,,0.00,0.0,WeatherDisplay:10.37,2013-04-26 02:52:00,
2013-04-26 04:57:00,47.3,43.9,30.05,WNW,297,0.0,0.0,88,0.00,CLR,,0.00,0.0,WeatherDisplay:10.37,2013-04-26 02:57:00,
2013-04-26 05:02:00,47.2,43.8,30.05,WNW,297,0.0,0.0,88,0.00,CLR,,0.00,0.0,WeatherDisplay:10.37,2013-04-26 03:02:00,
2013-04-26 05:07:00,47.1,43.7,30.05,WNW,297,0.0,0.0,88,0.00,CLR,,0.00,0.0,WeatherDisplay:10.37,2013-04-26 03:07:00,
2013-04-26 05:12:00,47.0,43.6,30.05,WNW,297,0.0,0.0,88,0.00,CLR,,0.00,0.0,WeatherDisplay:10.37,2013-04-26 03:12:00,
2013-04-26 05:17:00,46.9,43.5,30.05,WNW,297,0.0,0.0,88,0.00,CLR,,0.00,0.0,WeatherDisplay:10.37,2013-04-26 03:17:00,
2013-04-26 05:22:00,46.8,43.4,30.05,WNW,297,0.0,0.0,88,0.00,CLR,,0.00,0.0,WeatherDisplay:10.37,2013-04-26 03:22:00,
2013-04-26 05:27:00,46.6,42.9,30.05,WNW,297,0.1,1.2,87,0.00,CLR,,0.00,0.0,WeatherDisplay:10.37,2013-04-26 03:27:00,
2013-04-26 05:32:00,46.5,43.1,30.05,WNW,297,0.0,0.0,88,0.00,CLR,,0.00,0.0,WeatherDisplay:10.37,2013-04-26 03:32:00,
2013-04-26 05:37:00,46.4,43.0,30.06,WNW,297,0.0,0.0,88,0.00,CLR,,0.00,5.0,WeatherDisplay:10.37,2013-04-26 03:37:00,
2013-04-26 05:42:00,46.4,43.0,30.06,WNW,297,0.0,0.0,88,0.00,CLR,,0.00,7.0,WeatherDisplay:10.37,2013-04-26 03:42:00,
2013-04-26 05:47:00,46.4,43.0,30.06,WNW,297,0.0,0.0,88,0.00,CLR,,0.00,9.0,WeatherDisplay:10.37,2013-04-26 03:47:00,
2013-04-26 05:52:00,46.3,42.9,30.06,WNW,297,0.0,0.0,88,0.00,CLR,,0.00,11.0,WeatherDisplay:10.37,2013-04-26 03:52:00,
2013-04-26 05:57:00,46.3,42.9,30.06,WNW,297,0.0,0.0,88,0.00,CLR,,0.00,14.0,WeatherDisplay:10.37,2013-04-26 03:57:00,
2013-04-26 06:01:00,46.3,43.2,30.06,WNW,297,0.0,0.0,89,0.00,CLR,,0.00,16.0,WeatherDisplay:10.37,2013-04-26 04:01:00,
2013-04-26 06:02:00,46.3,43.2,30.06,WNW,296,0.0,0.0,89,0.00,CLR,,0.00,18.0,WeatherDisplay:10.37,2013-04-26 04:02:00,
2013-04-26 06:04:00,46.3,43.2,30.06,WNW,297,0.0,0.0,89,0.00,CLR,,0.00,23.0,WeatherDisplay:10.37,2013-04-26 04:04:00,
2013-04-26 06:06:00,46.3,43.2,30.05,WNW,297,0.0,0.0,89,0.00,CLR,,0.00,26.0,WeatherDisplay:10.37,2013-04-26 04:06:00,
2013-04-26 06:10:00,46.4,43.3,30.06,WNW,297,0.0,0.0,89,0.00,CLR,,0.00,32.0,WeatherDisplay:10.37,2013-04-26 04:10:00,
2013-04-26 06:15:00,46.4,43.3,30.06,WNW,297,0.0,0.0,89,0.00,CLR,,0.00,37.0,WeatherDisplay:10.37,2013-04-26 04:15:00,
2013-04-26 06:20:00,46.5,43.4,30.05,WNW,297,0.0,0.0,89,0.00,CLR,,0.00,42.0,WeatherDisplay:10.37,2013-04-26 04:20:00,
2013-04-26 06:25:00,46.6,43.8,30.06,WNW,297,0.0,0.0,90,0.00,CLR,,0.00,51.0,WeatherDisplay:10.37,2013-04-26 04:25:00,
2013-04-26 06:30:00,46.8,44.0,30.06,WNW,297,0.0,0.0,90,0.00,CLR,,0.00,60.0,WeatherDisplay:10.37,2013-04-26 04:30:00,
2013-04-26 06:35:00,47.0,44.2,30.05,WNW,297,0.0,0.0,90,0.00,SCT,,0.00,72.0,WeatherDisplay:10.37,2013-04-26 04:35:00,
2013-04-26 06:40:00,47.4,44.9,30.05,WNW,297,0.0,0.0,91,0.00,SCT,,0.00,81.0,WeatherDisplay:10.37,2013-04-26 04:40:00,
2013-04-26 06:45:00,48.0,45.5,30.05,WNW,297,0.0,0.0,91,0.00,FEW,,0.00,93.0,WeatherDisplay:10.37,2013-04-26 04:45:00,
2013-04-26 06:50:00,48.7,46.2,30.06,WNW,297,0.0,0.0,91,0.00,FEW,,0.00,105.0,WeatherDisplay:10.37,2013-04-26 04:50:00,
2013-04-26 06:55:00,49.4,46.6,30.06,WNW,297,0.0,0.0,90,0.00,FEW,,0.00,118.0,WeatherDisplay:10.37,2013-04-26 04:55:00,
2013-04-26 07:00:00,50.1,47.0,30.06,WNW,297,0.0,0.0,89,0.00,FEW,,0.00,130.0,WeatherDisplay:10.37,2013-04-26 05:00:00,
2013-04-26 07:05:00,51.3,47.6,30.06,WNW,297,0.0,0.0,87,0.00,FEW,,0.00,142.0,WeatherDisplay:10.37,2013-04-26 05:05:00,
2013-04-26 07:10:00,52.4,48.3,30.06,WNW,297,0.0,0.0,86,0.00,CLR,,0.00,151.0,WeatherDisplay:10.37,2013-04-26 05:10:00,
2013-04-26 07:15:00,53.6,48.6,30.06,WNW,297,0.0,0.0,83,0.00,CLR,,0.00,163.0,WeatherDisplay:10.37,2013-04-26 05:15:00,
2013-04-26 07:20:00,54.8,48.4,30.06,WNW,297,0.0,0.0,79,0.00,CLR,,0.00,174.0,WeatherDisplay:10.37,2013-04-26 05:20:00,
2013-04-26 07:25:00,55.9,49.5,30.06,WNW,297,0.0,0.0,79,0.00,CLR,,0.00,185.0,WeatherDisplay:10.37,2013-04-26 05:25:00,
2013-04-26 07:30:00,56.5,49.7,30.05,WNW,297,0.0,0.0,78,0.00,CLR,,0.00,197.0,WeatherDisplay:10.37,2013-04-26 05:30:00,
2013-04-26 07:35:00,57.2,50.1,30.05,WNW,296,0.0,0.0,77,0.00,CLR,,0.00,211.0,WeatherDisplay:10.37,2013-04-26 05:35:00,
2013-04-26 07:40:00,57.9,50.1,30.05,WNW,297,0.0,0.0,75,0.00,CLR,,0.00,223.0,WeatherDisplay:10.37,2013-04-26 05:40:00,
2013-04-26 07:45:00,59.3,50.3,30.05,WNW,297,0.0,0.0,72,0.00,CLR,,0.00,237.0,WeatherDisplay:10.37,2013-04-26 05:45:00,
2013-04-26 07:50:00,60.2,51.5,30.05,WNW,297,0.0,0.0,73,0.00,CLR,,0.00,250.0,WeatherDisplay:10.37,2013-04-26 05:50:00,
2013-04-26 07:55:00,61.3,51.0,30.05,WNW,297,0.0,0.0,69,0.00,CLR,,0.00,258.0,WeatherDisplay:10.37,2013-04-26 05:55:00,
2013-04-26 08:00:00,62.2,50.7,30.05,South,175,0.1,3.5,66,0.00,CLR,,0.00,271.0,WeatherDisplay:10.37,2013-04-26 06:00:00,
2013-04-26 08:05:00,63.1,51.1,30.05,South,175,0.0,1.2,65,0.00,CLR,,0.00,281.0,WeatherDisplay:10.37,2013-04-26 06:05:00,
2013-04-26 08:10:00,63.6,52.0,30.05,South,175,0.0,1.0,66,0.00,CLR,,0.00,294.0,WeatherDisplay:10.37,2013-04-26 06:10:00,
2013-04-26 08:15:00,64.1,51.7,30.05,South,176,0.0,1.2,64,0.00,CLR,,0.00,308.0,WeatherDisplay:10.37,2013-04-26 06:15:00,
2013-04-26 08:20:00,64.4,51.5,30.05,South,176,0.0,1.0,63,0.00,CLR,,0.00,320.0,WeatherDisplay:10.37,2013-04-26 06:20:00,
2013-04-26 08:25:00,64.9,52.0,30.05,South,176,0.0,1.2,63,0.00,CLR,,0.00,334.0,WeatherDisplay:10.37,2013-04-26 06:25:00,
2013-04-26 08:30:00,65.6,51.3,30.04,South,186,0.2,1.2,60,0.00,CLR,,0.00,343.0,WeatherDisplay:10.37,2013-04-26 06:30:00,
2013-04-26 08:35:00,65.9,50.7,30.04,South,186,0.0,1.2,58,0.00,CLR,,0.00,357.0,WeatherDisplay:10.37,2013-04-26 06:35:00,
2013-04-26 08:40:00,66.3,51.5,30.04,South,186,0.0,2.0,59,0.00,CLR,,0.00,369.0,WeatherDisplay:10.37,2013-04-26 06:40:00,
2013-04-26 08:45:00,66.9,51.6,30.04,South,187,0.0,0.0,58,0.00,CLR,,0.00,381.0,WeatherDisplay:10.37,2013-04-26 06:45:00,
2013-04-26 08:50:00,67.8,51.5,30.04,South,187,0.0,1.2,56,0.00,CLR,,0.00,394.0,WeatherDisplay:10.37,2013-04-26 06:50:00,
2013-04-26 08:55:00,68.5,52.7,30.03,South,187,0.0,0.0,57,0.00,CLR,,0.00,406.0,WeatherDisplay:10.37,2013-04-26 06:55:00,
2013-04-26 09:00:00,69.2,52.3,30.03,South,187,0.2,1.2,55,0.00,CLR,,0.00,418.0,WeatherDisplay:10.37,2013-04-26 07:00:00,
2013-04-26 09:05:00,69.8,52.4,30.03,SSW,213,0.1,1.2,54,0.00,CLR,,0.00,427.0,WeatherDisplay:10.37,2013-04-26 07:05:00,
2013-04-26 09:10:00,70.5,52.5,30.03,SSW,213,0.2,1.2,53,0.00,CLR,,0.00,434.0,WeatherDisplay:10.37,2013-04-26 07:10:00,
2013-04-26 09:15:00,71.2,53.2,30.03,SW,231,2.0,3.5,53,0.00,CLR,,0.00,448.0,WeatherDisplay:10.37,2013-04-26 07:15:00,
2013-04-26 09:20:00,71.8,53.2,30.03,SW,221,0.0,3.0,52,0.00,CLR,,0.00,462.0,WeatherDisplay:10.37,2013-04-26 07:20:00,
2013-04-26 09:25:00,72.7,51.3,30.03,WSW,246,2.8,6.0,47,0.00,CLR,,0.00,471.0,WeatherDisplay:10.37,2013-04-26 07:25:00,
2013-04-26 09:30:00,73.4,53.1,30.03,SW,219,5.5,11.5,49,0.00,CLR,,0.00,483.0,WeatherDisplay:10.37,2013-04-26 07:30:00,
2013-04-26 09:35:00,73.9,51.2,30.02,SW,221,3.2,6.0,45,0.00,CLR,,0.00,494.0,WeatherDisplay:10.37,2013-04-26 07:35:00,
2013-04-26 09:40:00,74.3,51.0,30.02,WSW,249,3.7,8.1,44,0.00,CLR,,0.00,508.0,WeatherDisplay:10.37,2013-04-26 07:40:00,
2013-04-26 09:45:00,74.4,50.4,30.02,SW,222,4.0,10.4,43,0.00,CLR,,0.00,513.0,WeatherDisplay:10.37,2013-04-26 07:45:00,
2013-04-26 09:50:00,74.6,51.2,30.02,SSW,197,5.4,7.0,44,0.00,CLR,,0.00,524.0,WeatherDisplay:10.37,2013-04-26 07:50:00,
2013-04-26 09:55:00,74.9,51.5,30.02,WSW,238,2.9,8.1,44,0.00,CLR,,0.00,534.0,WeatherDisplay:10.37,2013-04-26 07:55:00,
2013-04-26 10:00:00,75.0,51.6,30.02,SSW,208,2.5,6.9,44,0.00,CLR,,0.00,540.0,WeatherDisplay:10.37,2013-04-26 08:00:00,
2013-04-26 10:05:00,75.2,51.8,30.02,WSW,237,6.6,10.4,44,0.00,CLR,,0.00,550.0,WeatherDisplay:10.37,2013-04-26 08:05:00,
2013-04-26 10:10:00,75.3,51.3,30.02,SSW,209,5.6,8.1,43,0.00,CLR,,0.00,559.0,WeatherDisplay:10.37,2013-04-26 08:10:00,
2013-04-26 10:15:00,75.4,51.3,30.02,SW,224,3.3,8.0,43,0.00,CLR,,0.00,563.0,WeatherDisplay:10.37,2013-04-26 08:15:00,
2013-04-26 10:20:00,75.8,51.7,30.01,SSW,209,3.4,9.2,43,0.00,CLR,,0.00,580.0,WeatherDisplay:10.37,2013-04-26 08:20:00,
2013-04-26 10:25:00,76.1,50.0,30.02,SSW,202,5.2,8.1,40,0.00,CLR,,0.00,585.0,WeatherDisplay:10.37,2013-04-26 08:25:00,
2013-04-26 10:30:00,76.1,50.0,30.02,South,173,4.9,8.1,40,0.00,CLR,,0.00,596.0,WeatherDisplay:10.37,2013-04-26 08:30:00,
2013-04-26 10:35:00,76.4,50.3,30.01,SSW,200,6.1,11.5,40,0.00,CLR,,0.00,599.0,WeatherDisplay:10.37,2013-04-26 08:35:00,
2013-04-26 10:40:00,76.5,49.7,30.01,SW,215,2.7,9.2,39,0.00,CLR,,0.00,605.0,WeatherDisplay:10.37,2013-04-26 08:40:00,
2013-04-26 10:45:00,76.8,50.0,30.01,SSW,213,7.6,12.0,39,0.00,CLR,,0.00,610.0,WeatherDisplay:10.37,2013-04-26 08:45:00,
2013-04-26 10:50:00,76.6,50.5,30.01,SSW,212,5.2,10.4,40,0.00,CLR,,0.00,621.0,WeatherDisplay:10.37,2013-04-26 08:50:00,
2013-04-26 10:55:00,76.9,50.7,30.01,SSW,192,1.1,6.9,40,0.00,CLR,,0.00,628.0,WeatherDisplay:10.37,2013-04-26 08:55:00,
2013-04-26 11:00:00,76.8,50.0,30.00,SSE,163,3.5,9.2,39,0.00,CLR,,0.00,635.0,WeatherDisplay:10.37,2013-04-26 09:00:00,
2013-04-26 11:05:00,77.1,49.5,30.00,SSW,207,4.2,7.0,38,0.00,CLR,,0.00,645.0,WeatherDisplay:10.37,2013-04-26 09:05:00,
2013-04-26 11:10:00,77.5,49.9,30.00,SSW,194,4.1,10.4,38,0.00,CLR,,0.00,656.0,WeatherDisplay:10.37,2013-04-26 09:10:00,
2013-04-26 11:15:00,77.7,50.1,30.00,SW,227,5.9,8.1,38,0.00,CLR,,0.00,656.0,WeatherDisplay:10.37,2013-04-26 09:15:00,
2013-04-26 11:20:00,77.7,50.1,30.00,South,176,4.2,6.9,38,0.00,CLR,,0.00,664.0,WeatherDisplay:10.37,2013-04-26 09:20:00,
2013-04-26 11:25:00,77.8,49.4,29.99,SSE,148,3.2,5.0,37,0.00,CLR,,0.00,670.0,WeatherDisplay:10.37,2013-04-26 09:25:00,
2013-04-26 11:30:00,78.1,49.7,29.99,SSE,155,2.1,7.0,37,0.00,CLR,,0.00,670.0,WeatherDisplay:10.37,2013-04-26 09:30:00,
2013-04-26 11:35:00,78.6,50.9,29.99,South,188,3.3,11.5,38,0.00,CLR,,0.00,673.0,WeatherDisplay:10.37,2013-04-26 09:35:00,
2013-04-26 11:40:00,78.6,49.4,29.99,West,260,3.8,11.5,36,0.00,CLR,,0.00,677.0,WeatherDisplay:10.37,2013-04-26 09:40:00,
2013-04-26 11:45:00,78.8,51.0,29.99,WSW,252,4.1,6.9,38,0.00,CLR,,0.00,687.0,WeatherDisplay:10.37,2013-04-26 09:45:00,
2013-04-26 11:50:00,78.8,49.6,29.98,SW,225,4.4,6.9,36,0.00,CLR,,0.00,687.0,WeatherDisplay:10.37,2013-04-26 09:50:00,
2013-04-26 11:55:00,79.1,49.8,29.98,SSE,159,6.8,13.8,36,0.00,CLR,,0.00,700.0,WeatherDisplay:10.37,2013-04-26 09:55:00,
2013-04-26 12:00:00,79.1,50.6,29.98,SW,225,5.3,11.5,37,0.00,CLR,,0.00,707.0,WeatherDisplay:10.37,2013-04-26 10:00:00,
2013-04-26 12:05:00,78.8,51.0,29.97,SSW,208,3.3,11.5,38,0.00,CLR,,0.00,707.0,WeatherDisplay:10.37,2013-04-26 10:05:00,
2013-04-26 12:10:00,79.1,49.8,29.97,South,191,6.3,11.5,36,0.00,CLR,,0.00,717.0,WeatherDisplay:10.37,2013-04-26 10:10:00,
2013-04-26 12:15:00,79.1,49.1,29.97,South,173,7.9,13.0,35,0.00,CLR,,0.00,715.0,WeatherDisplay:10.37,2013-04-26 10:15:00,
2013-04-26 12:20:00,79.6,49.5,29.97,SSW,206,3.9,8.1,35,0.00,CLR,,0.00,710.0,WeatherDisplay:10.37,2013-04-26 10:20:00,
2013-04-26 12:25:00,79.6,51.0,29.97,SSE,155,4.7,8.1,37,0.00,CLR,,0.00,715.0,WeatherDisplay:10.37,2013-04-26 10:25:00,
2013-04-26 12:30:00,79.7,49.6,29.96,SSE,163,5.5,12.7,35,0.00,CLR,,0.00,729.0,WeatherDisplay:10.37,2013-04-26 10:30:00,
2013-04-26 12:35:00,79.6,48.8,29.96,SW,231,6.0,10.0,34,0.00,CLR,,0.00,715.0,WeatherDisplay:10.37,2013-04-26 10:35:00,
2013-04-26 12:40:00,79.8,50.5,29.95,South,181,6.5,9.2,36,0.00,CLR,,0.00,722.0,WeatherDisplay:10.37,2013-04-26 10:40:00,
2013-04-26 12:45:00,80.2,50.8,29.95,SSW,208,5.4,8.1,36,0.00,CLR,,0.00,712.0,WeatherDisplay:10.37,2013-04-26 10:45:00,
2013-04-26 12:50:00,80.7,50.5,29.95,SSE,161,3.8,6.9,35,0.00,CLR,,0.00,717.0,WeatherDisplay:10.37,2013-04-26 10:50:00,
2013-04-26 12:55:00,80.7,49.7,29.94,SSE,155,6.9,9.2,34,0.00,CLR,,0.00,722.0,WeatherDisplay:10.37,2013-04-26 10:55:00,
2013-04-26 13:00:00,80.7,48.9,29.94,SE,143,6.9,12.7,33,0.00,CLR,,0.00,714.0,WeatherDisplay:10.37,2013-04-26 11:00:00,
2013-04-26 13:05:00,80.6,48.8,29.94,SSW,198,6.3,10.4,33,0.00,CLR,,0.00,715.0,WeatherDisplay:10.37,2013-04-26 11:05:00,
2013-04-26 13:10:00,80.6,48.8,29.94,SSE,165,8.3,16.0,33,0.00,CLR,,0.00,717.0,WeatherDisplay:10.37,2013-04-26 11:10:00,
2013-04-26 13:15:00,81.0,48.4,29.93,SSE,158,6.1,8.1,32,0.00,CLR,,0.00,729.0,WeatherDisplay:10.37,2013-04-26 11:15:00,
2013-04-26 13:20:00,81.0,49.2,29.93,SW,218,4.0,10.4,33,0.00,CLR,,0.00,773.0,WeatherDisplay:10.37,2013-04-26 11:20:00,
2013-04-26 13:25:00,80.8,49.0,29.93,SW,230,4.2,10.4,33,0.00,CLR,,0.00,411.0,WeatherDisplay:10.37,2013-04-26 11:25:00,
2013-04-26 13:30:00,80.6,48.0,29.92,SW,236,3.8,11.5,32,0.00,FEW,,0.00,768.0,WeatherDisplay:10.37,2013-04-26 11:30:00,
2013-04-26 13:35:00,80.7,47.2,29.92,South,175,6.1,11.5,31,0.00,CLR,,0.00,394.0,WeatherDisplay:10.37,2013-04-26 11:35:00,
2013-04-26 13:40:00,81.0,47.5,29.92,SSE,165,5.9,11.0,31,0.00,CLR,,0.00,914.0,WeatherDisplay:10.37,2013-04-26 11:40:00,
2013-04-26 13:45:00,80.9,47.4,29.92,SW,214,6.1,11.0,31,0.00,CLR,,0.00,504.0,WeatherDisplay:10.37,2013-04-26 11:45:00,
2013-04-26 13:50:00,81.1,47.6,29.92,SSW,196,8.7,12.7,31,0.00,CLR,,0.00,754.0,WeatherDisplay:10.37,2013-04-26 11:50:00,
2013-04-26 13:55:00,81.8,48.2,29.92,SSE,161,6.8,15.0,31,0.00,CLR,,0.00,717.0,WeatherDisplay:10.37,2013-04-26 11:55:00,
2013-04-26 14:00:00,81.7,47.2,29.91,SSW,201,8.4,12.7,30,0.00,CLR,,0.00,694.0,WeatherDisplay:10.37,2013-04-26 12:00:00,
2013-04-26 14:05:00,81.5,47.9,29.91,SSE,167,4.5,10.4,31,0.00,CLR,,0.00,689.0,WeatherDisplay:10.37,2013-04-26 12:05:00,
2013-04-26 14:10:00,81.6,47.2,29.91,South,169,7.9,12.0,30,0.00,CLR,,0.00,680.0,WeatherDisplay:10.37,2013-04-26 12:10:00,
2013-04-26 14:15:00,81.8,46.4,29.91,SSW,201,5.4,10.4,29,0.00,CLR,,0.00,687.0,WeatherDisplay:10.37,2013-04-26 12:15:00,
2013-04-26 14:20:00,81.6,48.0,29.90,SE,126,8.4,13.8,31,0.00,CLR,,0.00,664.0,WeatherDisplay:10.37,2013-04-26 12:20:00,
2013-04-26 14:25:00,81.5,47.9,29.90,SW,218,6.9,12.7,31,0.00,CLR,,0.00,671.0,WeatherDisplay:10.37,2013-04-26 12:25:00,
2013-04-26 14:30:00,81.7,47.2,29.90,SSW,200,7.0,13.0,30,0.00,CLR,,0.00,659.0,WeatherDisplay:10.37,2013-04-26 12:30:00,
2013-04-26 14:35:00,81.7,47.2,29.90,South,185,2.8,13.8,30,0.00,CLR,,0.00,650.0,WeatherDisplay:10.37,2013-04-26 12:35:00,
2013-04-26 14:40:00,81.9,48.3,29.89,SSW,196,5.4,13.8,31,0.00,CLR,,0.00,654.0,WeatherDisplay:10.37,2013-04-26 12:40:00,
2013-04-26 14:45:00,81.9,46.5,29.89,SW,214,7.4,14.0,29,0.00,CLR,,0.00,649.0,WeatherDisplay:10.37,2013-04-26 12:45:00,
2013-04-26 14:50:00,81.9,48.3,29.89,SSE,159,4.1,6.9,31,0.00,CLR,,0.00,663.0,WeatherDisplay:10.37,2013-04-26 12:50:00,
2013-04-26 14:55:00,82.1,48.5,29.89,WSW,242,3.0,9.0,31,0.00,CLR,,0.00,650.0,WeatherDisplay:10.37,2013-04-26 12:55:00,
2013-04-26 15:00:00,82.1,46.7,29.88,South,188,6.8,11.5,29,0.00,CLR,,0.00,657.0,WeatherDisplay:10.37,2013-04-26 13:00:00,
2013-04-26 15:05:00,82.1,48.5,29.88,WSW,239,6.9,12.0,31,0.00,CLR,,0.00,355.0,WeatherDisplay:10.37,2013-04-26 13:05:00,
2013-04-26 15:10:00,81.9,46.5,29.88,South,186,7.0,11.5,29,0.00,CLR,,0.00,617.0,WeatherDisplay:10.37,2013-04-26 13:10:00,
2013-04-26 15:15:00,82.1,46.7,29.88,SSW,209,7.0,12.0,29,0.00,CLR,,0.00,657.0,WeatherDisplay:10.37,2013-04-26 13:15:00,
2013-04-26 15:20:00,82.1,48.5,29.87,SW,226,6.6,10.4,31,0.00,CLR,,0.00,652.0,WeatherDisplay:10.37,2013-04-26 13:20:00,
2013-04-26 15:25:00,81.9,47.4,29.87,SW,227,6.8,12.0,30,0.00,CLR,,0.00,213.0,WeatherDisplay:10.37,2013-04-26 13:25:00,
2013-04-26 15:30:00,81.3,46.9,29.87,SSW,211,4.1,7.0,30,0.00,FEW,,0.00,202.0,WeatherDisplay:10.37,2013-04-26 13:30:00,
2013-04-26 15:35:00,81.0,47.5,29.86,SSW,196,4.9,11.5,31,0.00,BKN,,0.00,239.0,WeatherDisplay:10.37,2013-04-26 13:35:00,
2013-04-26 15:40:00,81.2,47.7,29.86,South,180,6.5,10.4,31,0.00,SCT,,0.00,645.0,WeatherDisplay:10.37,2013-04-26 13:40:00,
2013-04-26 15:45:00,81.4,47.9,29.86,SSE,166,4.8,9.2,31,0.00,FEW,,0.00,601.0,WeatherDisplay:10.37,2013-04-26 13:45:00,
2013-04-26 15:50:00,81.2,47.7,29.85,South,179,8.3,19.6,31,0.00,FEW,,0.00,571.0,WeatherDisplay:10.37,2013-04-26 13:50:00,
2013-04-26 15:56:00,82.2,48.6,29.85,SW,229,6.2,11.5,31,0.00,CLR,,0.00,531.0,WeatherDisplay:10.37,2013-04-26 13:56:00,
2013-04-26 16:01:00,82.4,49.6,29.84,SSE,155,3.4,8.1,32,0.00,CLR,,0.00,526.0,WeatherDisplay:10.37,2013-04-26 14:01:00,
2013-04-26 16:06:00,82.3,48.6,29.84,SSW,209,1.4,9.2,31,0.00,CLR,,0.00,522.0,WeatherDisplay:10.37,2013-04-26 14:06:00,
2013-04-26 16:11:00,82.2,47.7,29.84,South,184,6.7,10.4,30,0.00,CLR,,0.00,332.0,WeatherDisplay:10.37,2013-04-26 14:11:00,
2013-04-26 16:16:00,82.1,48.5,29.84,SSE,167,6.1,13.8,31,0.00,CLR,,0.00,512.0,WeatherDisplay:10.37,2013-04-26 14:16:00,
2013-04-26 16:21:00,81.7,48.1,29.84,SSW,205,3.8,11.5,31,0.00,CLR,,0.00,504.0,WeatherDisplay:10.37,2013-04-26 14:21:00,
2013-04-26 16:26:00,82.0,48.4,29.83,South,173,6.5,9.2,31,0.00,CLR,,0.00,478.0,WeatherDisplay:10.37,2013-04-26 14:26:00,
2013-04-26 16:31:00,82.1,48.5,29.83,South,186,5.9,11.5,31,0.00,CLR,,0.00,462.0,WeatherDisplay:10.37,2013-04-26 14:31:00,
2013-04-26 16:36:00,82.2,48.6,29.83,SSW,202,7.1,10.4,31,0.00,CLR,,0.00,455.0,WeatherDisplay:10.37,2013-04-26 14:36:00,
2013-04-26 16:41:00,82.2,49.4,29.82,South,190,3.3,8.1,32,0.00,CLR,,0.00,415.0,WeatherDisplay:10.37,2013-04-26 14:41:00,
2013-04-26 16:46:00,82.5,47.9,29.83,SSW,204,6.2,11.5,30,0.00,CLR,,0.00,401.0,WeatherDisplay:10.37,2013-04-26 14:46:00,
2013-04-26 16:51:00,82.5,47.9,29.82,SW,217,5.2,12.0,30,0.00,CLR,,0.00,390.0,WeatherDisplay:10.37,2013-04-26 14:51:00,
2013-04-26 16:56:00,82.3,44.0,29.82,South,187,6.8,16.1,26,0.00,CLR,,0.00,380.0,WeatherDisplay:10.37,2013-04-26 14:56:00,
2013-04-26 17:01:00,82.3,45.0,29.82,SSE,158,2.7,12.7,27,0.00,CLR,,0.00,366.0,WeatherDisplay:10.37,2013-04-26 15:01:00,
2013-04-26 17:06:00,82.2,43.9,29.82,SW,228,9.3,12.7,26,0.00,CLR,,0.00,357.0,WeatherDisplay:10.37,2013-04-26 15:06:00,
2013-04-26 17:11:00,82.1,44.8,29.82,SW,214,4.5,12.7,27,0.00,CLR,,0.00,338.0,WeatherDisplay:10.37,2013-04-26 15:11:00,
2013-04-26 17:16:00,82.2,43.9,29.81,WSW,254,6.9,12.7,26,0.00,CLR,,0.00,330.0,WeatherDisplay:10.37,2013-04-26 15:16:00,
2013-04-26 17:21:00,82.0,43.7,29.81,WSW,255,9.1,15.0,26,0.00,CLR,,0.00,316.0,WeatherDisplay:10.37,2013-04-26 15:21:00,
2013-04-26 17:26:00,81.8,44.5,29.81,SW,218,5.7,11.5,27,0.00,CLR,,0.00,304.0,WeatherDisplay:10.37,2013-04-26 15:26:00,
2013-04-26 17:31:00,81.7,42.4,29.81,SW,225,10.4,15.0,25,0.00,CLR,,0.00,292.0,WeatherDisplay:10.37,2013-04-26 15:31:00,
2013-04-26 17:36:00,81.6,42.4,29.81,SW,225,5.5,12.7,25,0.00,CLR,,0.00,272.0,WeatherDisplay:10.37,2013-04-26 15:36:00,
2013-04-26 17:41:00,81.5,43.3,29.80,SW,230,7.0,13.8,26,0.00,CLR,,0.00,265.0,WeatherDisplay:10.37,2013-04-26 15:41:00,
2013-04-26 17:46:00,81.5,43.3,29.80,SW,219,3.7,10.4,26,0.00,CLR,,0.00,251.0,WeatherDisplay:10.37,2013-04-26 15:46:00,
2013-04-26 17:51:00,81.5,43.3,29.80,SW,224,6.5,14.0,26,0.00,CLR,,0.00,239.0,WeatherDisplay:10.37,2013-04-26 15:51:00,
2013-04-26 17:56:00,81.4,43.2,29.79,SW,217,6.1,10.4,26,0.00,CLR,,0.00,221.0,WeatherDisplay:10.37,2013-04-26 15:56:00,
2013-04-26 18:01:00,81.2,43.0,29.79,SW,217,7.5,13.0,26,0.00,CLR,,0.00,207.0,WeatherDisplay:10.37,2013-04-26 16:01:00,
2013-04-26 18:06:00,81.0,42.9,29.79,SW,223,4.0,13.8,26,0.00,CLR,,0.00,195.0,WeatherDisplay:10.37,2013-04-26 16:06:00,
2013-04-26 18:11:00,80.9,43.8,29.79,SW,221,3.0,9.2,27,0.00,CLR,,0.00,179.0,WeatherDisplay:10.37,2013-04-26 16:11:00,
2013-04-26 18:16:00,80.7,43.6,29.79,SSW,212,10.7,15.0,27,0.00,CLR,,0.00,165.0,WeatherDisplay:10.37,2013-04-26 16:16:00,
2013-04-26 18:21:00,80.5,44.4,29.78,SSW,209,2.9,11.5,28,0.00,CLR,,0.00,151.0,WeatherDisplay:10.37,2013-04-26 16:21:00,
2013-04-26 18:26:00,80.2,45.1,29.78,SW,231,4.3,11.5,29,0.00,CLR,,0.00,137.0,WeatherDisplay:10.37,2013-04-26 16:26:00,
2013-04-26 18:31:00,79.9,43.9,29.78,SW,224,5.0,9.2,28,0.00,CLR,,0.00,123.0,WeatherDisplay:10.37,2013-04-26 16:31:00,
2013-04-26 18:36:00,79.6,44.5,29.78,SW,219,2.9,12.7,29,0.00,CLR,,0.00,109.0,WeatherDisplay:10.37,2013-04-26 16:36:00,
2013-04-26 18:41:00,79.2,44.2,29.78,SSW,200,4.0,6.9,29,0.00,CLR,,0.00,97.0,WeatherDisplay:10.37,2013-04-26 16:41:00,
2013-04-26 18:46:00,78.9,43.9,29.78,SW,219,5.8,9.2,29,0.00,FEW,,0.00,84.0,WeatherDisplay:10.37,2013-04-26 16:46:00,
2013-04-26 18:51:00,78.7,44.7,29.78,SSW,211,2.7,5.8,30,0.00,FEW,,0.00,72.0,WeatherDisplay:10.37,2013-04-26 16:51:00,
2013-04-26 18:56:00,78.4,43.5,29.78,SW,221,5.3,9.2,29,0.00,FEW,,0.00,63.0,WeatherDisplay:10.37,2013-04-26 16:56:00,
2013-04-26 19:01:00,78.1,44.1,29.78,SSW,203,4.2,7.0,30,0.00,FEW,,0.00,54.0,WeatherDisplay:10.37,2013-04-26 17:01:00,
2013-04-26 19:06:00,77.9,43.1,29.78,SW,231,6.1,10.4,29,0.00,FEW,,0.00,44.0,WeatherDisplay:10.37,2013-04-26 17:06:00,
2013-04-26 19:11:00,77.6,43.7,29.78,WSW,255,3.7,6.0,30,0.00,FEW,,0.00,33.0,WeatherDisplay:10.37,2013-04-26 17:11:00,
2013-04-26 19:16:00,77.4,43.5,29.78,SW,222,3.3,5.8,30,0.00,FEW,,0.00,25.0,WeatherDisplay:10.37,2013-04-26 17:16:00,
2013-04-26 19:21:00,77.2,42.5,29.77,SSW,212,6.2,9.2,29,0.00,FEW,,0.00,21.0,WeatherDisplay:10.37,2013-04-26 17:21:00,
2013-04-26 19:26:00,77.0,44.0,29.77,SSW,213,0.3,3.5,31,0.00,FEW,,0.00,16.0,WeatherDisplay:10.37,2013-04-26 17:26:00,
2013-04-26 19:31:00,76.7,43.8,29.77,South,186,0.7,3.5,31,0.00,FEW,,0.00,12.0,WeatherDisplay:10.37,2013-04-26 17:31:00,
2013-04-26 19:36:00,76.4,44.4,29.77,South,186,1.0,2.3,32,0.00,FEW,,0.00,9.0,WeatherDisplay:10.37,2013-04-26 17:36:00,
2013-04-26 19:41:00,75.9,44.7,29.77,South,173,0.2,2.3,33,0.00,FEW,,0.00,7.0,WeatherDisplay:10.37,2013-04-26 17:41:00,
2013-04-26 19:46:00,75.3,44.2,29.77,South,173,0.2,1.2,33,0.00,FEW,,0.00,0.0,WeatherDisplay:10.37,2013-04-26 17:46:00,
2013-04-26 19:51:00,74.8,44.5,29.77,South,173,0.3,1.2,34,0.00,FEW,,0.00,0.0,WeatherDisplay:10.37,2013-04-26 17:51:00,
2013-04-26 19:56:00,74.1,44.7,29.77,South,173,0.1,1.2,35,0.00,FEW,,0.00,0.0,WeatherDisplay:10.37,2013-04-26 17:56:00,
2013-04-26 20:01:00,73.5,44.9,29.77,South,173,0.5,2.3,36,0.00,FEW,,0.00,0.0,WeatherDisplay:10.37,2013-04-26 18:01:00,
2013-04-26 20:06:00,72.8,45.0,29.77,South,173,0.8,2.3,37,0.00,FEW,,0.00,0.0,WeatherDisplay:10.37,2013-04-26 18:06:00,
2013-04-26 20:11:00,72.2,45.2,29.77,South,173,0.7,3.5,38,0.00,FEW,,0.00,0.0,WeatherDisplay:10.37,2013-04-26 18:11:00,
2013-04-26 20:16:00,71.5,44.5,29.77,South,173,1.1,2.3,38,0.00,FEW,,0.00,0.0,WeatherDisplay:10.37,2013-04-26 18:16:00,
2013-04-26 20:21:00,70.9,44.7,29.77,South,173,0.5,2.3,39,0.00,FEW,,0.00,0.0,WeatherDisplay:10.37,2013-04-26 18:21:00,
2013-04-26 20:26:00,70.4,44.9,29.77,SSE,160,1.4,4.0,40,0.00,FEW,,0.00,0.0,WeatherDisplay:10.37,2013-04-26 18:26:00,
2013-04-26 20:31:00,70.0,44.6,29.77,South,178,3.2,4.0,40,0.00,FEW,,0.00,0.0,WeatherDisplay:10.37,2013-04-26 18:31:00,
2013-04-26 20:36:00,69.7,44.9,29.77,South,173,0.6,3.5,41,0.00,FEW,,0.00,0.0,WeatherDisplay:10.37,2013-04-26 18:36:00,
2013-04-26 20:41:00,69.5,45.4,29.77,South,176,1.4,4.0,42,0.00,FEW,,0.00,0.0,WeatherDisplay:10.37,2013-04-26 18:41:00,
2013-04-26 20:46:00,69.3,45.2,29.77,South,186,1.2,3.5,42,0.00,FEW,,0.00,0.0,WeatherDisplay:10.37,2013-04-26 18:46:00,
2013-04-26 20:51:00,69.1,45.0,29.77,South,175,1.7,3.5,42,0.00,FEW,,0.00,0.0,WeatherDisplay:10.37,2013-04-26 18:51:00,
2013-04-26 20:56:00,69.0,44.9,29.77,South,182,0.9,2.3,42,0.00,FEW,,0.00,0.0,WeatherDisplay:10.37,2013-04-26 18:56:00,
2013-04-26 21:01:00,68.9,44.9,29.77,South,182,1.4,3.5,42,0.00,FEW,,0.00,0.0,WeatherDisplay:10.37,2013-04-26 19:01:00,
2013-04-26 21:06:00,68.7,44.7,29.77,South,188,1.8,3.5,42,0.00,FEW,,0.00,0.0,WeatherDisplay:10.37,2013-04-26 19:06:00,
2013-04-26 21:11:00,68.6,43.9,29.77,SSW,207,2.6,5.0,41,0.00,FEW,,0.00,0.0,WeatherDisplay:10.37,2013-04-26 19:11:00,
2013-04-26 21:16:00,68.7,43.4,29.77,SSW,195,1.5,3.5,40,0.00,FEW,,0.00,0.0,WeatherDisplay:10.37,2013-04-26 19:16:00,
2013-04-26 21:21:00,68.9,43.6,29.77,South,178,3.0,6.0,40,0.00,FEW,,0.00,0.0,WeatherDisplay:10.37,2013-04-26 19:21:00,
2013-04-26 21:26:00,69.1,43.1,29.77,SSW,194,2.4,4.0,39,0.00,FEW,,0.00,0.0,WeatherDisplay:10.37,2013-04-26 19:26:00,
2013-04-26 21:31:00,69.4,43.4,29.77,SSW,213,4.2,7.0,39,0.00,FEW,,0.00,0.0,WeatherDisplay:10.37,2013-04-26 19:31:00,
2013-04-26 21:36:00,69.6,42.2,29.77,SSW,211,3.8,6.9,37,0.00,FEW,,0.00,0.0,WeatherDisplay:10.37,2013-04-26 19:36:00,
2013-04-26 21:41:00,69.9,42.4,29.77,South,187,1.5,6.9,37,0.00,FEW,,0.00,0.0,WeatherDisplay:10.37,2013-04-26 19:41:00,
2013-04-26 21:46:00,70.1,42.6,29.77,SSW,212,2.5,5.8,37,0.00,FEW,,0.00,0.0,WeatherDisplay:10.37,2013-04-26 19:46:00,
2013-04-26 21:51:00,70.1,42.6,29.77,South,190,1.2,3.5,37,0.00,FEW,,0.00,0.0,WeatherDisplay:10.37,2013-04-26 19:51:00,
2013-04-26 21:56:00,70.0,42.5,29.77,South,178,1.8,4.6,37,0.00,FEW,,0.00,0.0,WeatherDisplay:10.37,2013-04-26 19:56:00,
2013-04-26 22:01:00,69.9,42.4,29.77,South,173,1.8,4.0,37,0.00,FEW,,0.00,0.0,WeatherDisplay:10.37,2013-04-26 20:01:00,
2013-04-26 22:06:00,69.7,42.9,29.77,South,172,1.4,2.3,38,0.00,FEW,,0.00,0.0,WeatherDisplay:10.37,2013-04-26 20:06:00,
2013-04-26 22:11:00,69.4,42.0,29.76,SSE,155,1.5,3.5,37,0.00,FEW,,0.00,0.0,WeatherDisplay:10.37,2013-04-26 20:11:00,
2013-04-26 22:16:00,69.1,42.4,29.76,SSE,154,0.8,2.3,38,0.00,FEW,,0.00,0.0,WeatherDisplay:10.37,2013-04-26 20:16:00,
2013-04-26 22:21:00,68.7,42.7,29.76,SSE,154,1.4,3.0,39,0.00,FEW,,0.00,0.0,WeatherDisplay:10.37,2013-04-26 20:21:00,
2013-04-26 22:26:00,68.4,42.5,29.76,SSE,161,0.6,1.2,39,0.00,FEW,,0.00,0.0,WeatherDisplay:10.37,2013-04-26 20:26:00,
2013-04-26 22:31:00,68.0,42.8,29.76,SSE,149,0.8,3.5,40,0.00,FEW,,0.00,0.0,WeatherDisplay:10.37,2013-04-26 20:31:00,
2013-04-26 22:36:00,67.7,42.5,29.76,SSE,148,1.2,3.5,40,0.00,FEW,,0.00,0.0,WeatherDisplay:10.37,2013-04-26 20:36:00,
2013-04-26 22:41:00,67.4,43.5,29.76,SE,136,0.8,3.0,42,0.00,FEW,,0.00,0.0,WeatherDisplay:10.37,2013-04-26 20:41:00,
2013-04-26 22:46:00,67.2,42.7,29.76,SSE,147,1.9,6.0,41,0.00,FEW,,0.00,0.0,WeatherDisplay:10.37,2013-04-26 20:46:00,
2013-04-26 22:51:00,67.0,42.5,29.75,SSE,150,0.4,2.3,41,0.00,FEW,,0.00,0.0,WeatherDisplay:10.37,2013-04-26 20:51:00,
2013-04-26 22:56:00,66.9,43.0,29.75,SSE,150,0.4,3.5,42,0.00,FEW,,0.00,0.0,WeatherDisplay:10.37,2013-04-26 20:56:00,
2013-04-26 23:01:00,66.7,42.9,29.75,SSE,150,0.5,2.3,42,0.00,FEW,,0.00,0.0,WeatherDisplay:10.37,2013-04-26 21:01:00,
2013-04-26 23:06:00,66.4,43.2,29.75,SE,140,0.9,3.5,43,0.00,FEW,,0.00,0.0,WeatherDisplay:10.37,2013-04-26 21:06:00,
2013-04-26 23:11:00,66.2,43.6,29.75,SE,140,1.8,3.5,44,0.00,FEW,,0.00,0.0,WeatherDisplay:10.37,2013-04-26 21:11:00,
2013-04-26 23:16:00,66.0,43.5,29.75,SE,132,0.1,2.3,44,0.00,FEW,,0.00,0.0,WeatherDisplay:10.37,2013-04-26 21:16:00,
2013-04-26 23:21:00,65.8,43.9,29.74,SE,132,0.0,0.0,45,0.00,FEW,,0.00,0.0,WeatherDisplay:10.37,2013-04-26 21:21:00,
2013-04-26 23:26:00,65.6,44.3,29.75,SE,132,0.0,0.0,46,0.00,FEW,,0.00,0.0,WeatherDisplay:10.37,2013-04-26 21:26:00,
2013-04-26 23:31:00,65.3,45.1,29.75,SE,132,0.0,0.0,48,0.00,FEW,,0.00,0.0,WeatherDisplay:10.37,2013-04-26 21:31:00,
2013-04-26 23:36:00,65.0,44.3,29.75,SE,132,0.0,0.0,47,0.00,FEW,,0.00,0.0,WeatherDisplay:10.37,2013-04-26 21:36:00,
2013-04-26 23:41:00,64.5,44.9,29.75,SE,132,0.0,0.0,49,0.00,FEW,,0.00,0.0,WeatherDisplay:10.37,2013-04-26 21:41:00,
2013-04-26 23:46:00,64.0,45.0,29.74,SE,132,0.0,0.0,50,0.00,FEW,,0.00,0.0,WeatherDisplay:10.37,2013-04-26 21:46:00,
2013-04-26 23:51:00,63.5,45.0,29.74,SE,132,0.0,0.0,51,0.00,FEW,,0.00,0.0,WeatherDisplay:10.37,2013-04-26 21:51:00,
2013-04-26 23:56:00,63.0,44.6,29.74,SE,132,0.0,0.0,51,0.00,FEW,,0.00,0.0,WeatherDisplay:10.37,2013-04-26 21:56:00,